{"data":{"norad_id":56773,"epoch":"2026-09-20T12:07:19.590240Z","epoch_age_seconds":114451,"freshness":"FRESH","line1":"1 56773U 23078G   26263.50508785  .00000219  00000+0  26137-4 0  9999","line2":"2 56773  70.0002 173.4248 0002882 268.9441  91.1388 14.98324377182843","mean_motion":14.98324377,"eccentricity":0.0002882,"inclination_deg":70.0002,"raan_deg":173.4248,"arg_perigee_deg":268.9441,"mean_anomaly_deg":91.1388,"bstar":2.6137e-5,"rev_number":18284,"period_min":96.107359801702,"perigee_km":570.07022905986,"apogee_km":574.07633026505,"semimajor_km":6950.2102796625,"source":"CELESTRAK","updated_at":"2026-09-21T09:00:33.486141Z"}}